Location: Anumalkud?ru
(16.4847°N, 80.6636°E)
Time: 23:24:45
(UTC+00:00)

Cosmos 1844 Rocket - Pass Details

Date: 11 April 2026
Orbit: 825 x 842 km, 71.0° (Epoch: 9 May)

Event Time Altitude Azimuth Distance (km) Brightness Sun altitude
Rises 13:36:03 0° 359° (N) 3,354 6.0 -11.2°
Reaches altitude 10° 13:38:47 10° 10° (N) 2,420 5.1 -11.8°
Maximum altitude 13:43:34 29° 70° (ENE) 1,453 3.5 -13.0°
Enters shadow 13:46:33 18° 117° (ESE) 1,895 3.9 -13.7°
